Wind_Speed
5 6 5 5 5 5 5 7 7 7 8 8 9 9 8 8 8 9 9 8 8 7 6 6 6 6 6 6 7 7 7 7 6 7 7 7 8 8 8 8 8 8 8
6 7 6 5 5 5 5 7 7 7 7 8 9 9 8 8 8 8 8 8 7 7 7 7 6 7 6 6 6 6 7 7 6 6 6 7 7 8 8 8 8 8 8
6 6 6 6 5 4 5 7 7 8 8 8 9 8 8 8 7 7 7 7 7 6 6 6 6 6 6 6 6 6 6 6 6 6 6 7 8 7 7 8 7 7 7
6 6 6 5 4 4 5 7 8 8 8 8 8 8 8 7 7 7 7 7 6 6 6 6 5 5 5 5 6 6 5 5 5 6 6 7 8 7 7 7 7 7 7
8 7 6 5 4 5 6 6 6 7 8 7 7 7 7 7 7 7 6 6 6 6 6 6 5 5 5 5 6 5 5 5 5 5 6 7 7 7 7 7 7 6 6
9 8 7 6 5 6 6 6 6 7 7 7 7 7 7 7 7 7 6 6 6 5 5 5 5 5 5 5 5 5 5 5 4 5 6 7 6 7 6 6 6 6 6
9 8 7 7 6 6 6 6 6 6 7 7 6 6 7 7 7 6 6 5 5 5 4 5 5 5 5 5 4 4 4 4 4 5 5 6 6 6 6 6 6 5 5
9 8 7 7 6 6 6 4 4 5 6 6 6 6 7 7 7 6 6 5 5 4 4 4 4 5 5 4 4 4 3 4 4 4 4 5 6 5 5 5 5 5 5
10 8 8 7 6 6 6 5 5 5 5 5 6 6 7 7 7 7 6 5 5 4 4 4 4 4 4 4 4 3 4 3 3 3 3 4 5 5 5 4 4 4 4
11 10 9 8 6 6 6 5 5 5 5 5 5 5 6 7 7 6 6 5 5 4 4 4 4 4 4 4 4 4 3 3 3 3 3 3 4 4 4 4 3 3 3
12 11 9 9 7 6 6 5 5 5 5 5 4 4 5 6 6 5 5 5 5 5 4 5 5 4 4 4 3 3 3 3 3 3 3 3 3 4 3 3 3 3 2
14 13 11 10 8 7 7 6 5 4 4 4 3 4 5 5 5 5 5 5 5 5 5 5 4 4 4 4 4 4 4 3 3 3 3 3 4 4 3 3 3 3 3
14 14 13 11 9 8 8 7 5 5 4 4 3 3 4 4 5 5 5 5 6 6 6 5 4 4 4 4 4 4 4 4 4 4 4 4 4 4 4 4 4 4 4
15 14 13 12 11 9 8 8 7 6 5 3 3 3 3 4 4 5 6 6 6 6 6 5 5 4 4 4 4 4 5 5 5 4 4 4 4 5 5 5 5 5 5
15 14 14 13 12 11 10 8 7 6 5 4 3 3 3 4 5 5 5 6 6 6 6 6 5 5 5 5 5 5 5 5 6 6 5 5 5 6 6 6 6 7 7
16 15 15 14 12 12 10 9 8 7 6 5 3 3 3 3 4 4 5 5 6 5 6 6 5 6 6 5 6 6 6 6 6 6 6 6 6 7 7 7 8 7 7
16 15 15 14 13 12 11 10 9 8 6 5 4 3 3 3 3 4 4 5 6 6 6 6 6 6 6 6 6 6 6 6 6 6 7 7 6 7 7 7 8 8 7
16 15 15 14 14 13 12 11 10 9 8 6 5 3 2 2 2 2 4 5 6 5 5 5 5 5 6 6 6 7 6 6 6 7 7 8 8 8 8 8 8 9 9
15 15 15 14 13 13 12 11 11 10 8 7 6 4 3 2 1 1 3 4 5 5 5 5 5 5 5 6 6 6 7 7 7 7 7 7 8 8 8 9 9 9 10
14 14 14 14 13 12 12 11 11 10 10 8 7 6 4 3 1 0 1 3 4 4 4 4 5 5 6 6 6 7 7 8 8 8 7 8 9 9 9 10 10 10 10
12 12 13 13 12 12 12 12 11 10 10 9 8 7 7 5 4 2 1 0 2 3 4 4 4 5 5 6 7 7 8 8 9 9 9 9 9 10 10 10 11 10 11
10 10 11 12 12 12 12 12 11 11 10 10 9 7 7 6 5 4 3 2 1 1 3 4 4 5 6 7 7 8 8 9 10 10 10 10 10 11 12 12 12 12 12
8 9 9 10 10 10 10 11 11 11 11 10 10 9 7 6 6 4 3 2 2 1 1 2 3 4 5 6 6 7 8 9 9 10 10 10 11 11 12 13 13 13 13
7 7 7 8 8 8 9 9 9 10 10 9 9 8 7 6 6 5 4 3 2 1 1 1 2 3 4 5 6 7 8 8 9 9 10 11 11 11 12 13 13 14 15
7 7 7 7 7 6 7 7 8 8 9 9 9 8 7 6 5 6 5 4 3 2 2 2 2 3 4 5 6 7 7 8 9 9 10 11 11 12 13 14 14 15 16
7 7 6 6 6 6 6 6 7 7 8 9 9 8 7 6 6 6 6 5 4 3 4 4 5 5 5 5 6 7 7 7 8 9 10 11 12 12 13 14 14 15 16
Wind_Direction
84 96 106 117 121 133 149 158 157 159 160 159 158 158 154 152 149 147 146 147 146 143 139 138 136 130 125 123 120 117 118 114 112 107 110 115 116 114 112 111 107 104 103
84 97 97 110 125 138 152 164 170 165 164 163 158 160 156 152 150 148 146 143 144 141 138 132 134 129 129 125 122 119 119 115 113 111 113 118 118 115 113 111 109 106 105
81 90 96 102 119 133 155 161 162 164 168 165 160 161 158 155 153 150 145 142 144 142 139 134 130 131 130 127 125 123 118 113 111 112 119 122 120 116 113 111 109 107 104
80 83 91 101 113 125 142 154 155 158 162 165 164 166 162 162 159 155 153 152 154 151 147 143 137 133 133 131 128 125 121 116 113 111 122 123 123 120 116 114 112 109 107
77 82 85 98 110 125 131 140 149 156 158 158 165 171 171 170 166 163 162 163 160 157 155 153 147 142 142 133 130 129 128 123 119 117 127 127 125 126 126 120 117 114 111
74 77 81 91 106 117 123 129 143 151 155 158 163 165 171 171 170 169 171 171 167 160 157 157 154 148 149 139 136 133 128 123 124 127 136 133 133 133 132 130 127 121 115
72 73 80 88 102 115 117 126 144 155 156 157 158 166 170 172 172 174 174 172 170 164 160 161 161 155 150 149 150 149 144 134 129 131 141 139 136 137 135 136 137 132 126
68 72 79 86 93 102 112 124 138 153 150 154 155 161 170 173 174 176 175 170 165 170 170 166 165 161 161 160 160 161 163 147 136 140 143 146 147 145 143 141 143 140 135
65 70 78 87 91 92 97 106 119 134 145 149 154 157 168 173 175 175 177 174 172 174 176 175 168 166 165 170 172 172 175 166 151 147 151 149 152 150 149 148 150 149 147
63 68 74 81 89 91 91 93 107 120 135 142 154 160 167 176 179 179 183 183 181 179 182 184 178 174 170 177 178 173 179 179 166 155 158 162 164 159 159 161 164 164 167
64 67 72 79 83 82 82 85 106 119 126 133 148 157 168 176 181 183 186 191 190 186 183 186 189 190 184 188 187 180 185 183 181 177 172 180 183 176 181 189 185 186 197
63 64 68 70 75 74 76 82 98 117 126 135 153 166 170 182 185 185 190 196 198 199 192 191 196 195 196 201 203 199 198 199 204 204 201 200 203 202 210 214 210 206 215
65 66 67 67 68 70 71 75 88 105 121 134 149 167 178 180 184 188 194 196 195 197 196 193 194 201 211 213 207 204 203 213 222 225 231 222 219 224 230 232 228 227 234
62 64 67 67 69 71 71 71 75 88 101 111 138 158 172 182 184 192 197 194 193 195 202 206 204 211 216 211 206 206 215 231 230 231 233 232 233 234 237 239 239 237 241
59 63 65 66 67 69 70 72 71 74 79 91 112 146 155 165 180 181 180 187 194 203 208 212 216 221 220 220 218 215 225 236 232 235 234 238 238 238 239 244 243 244 244
55 58 60 62 65 67 67 68 66 64 65 70 94 127 145 154 171 181 177 184 193 201 208 216 217 223 223 225 225 229 235 242 240 240 243 246 243 242 243 246 247 249 248
52 53 56 58 60 62 62 62 63 63 63 59 66 92 113 126 157 186 191 194 201 207 212 218 223 225 224 229 232 231 232 241 246 246 246 246 247 249 247 246 246 248 251
50 50 52 54 56 58 58 58 57 56 57 54 59 69 83 99 131 179 200 207 213 215 216 222 227 227 227 231 233 231 235 244 249 252 252 250 253 253 250 248 249 250 253
48 49 50 50 51 53 55 56 53 50 52 53 55 60 63 69 95 179 200 216 220 224 228 234 231 230 233 233 231 233 239 246 249 253 254 254 254 257 255 254 254 254 253
43 45 48 48 49 50 52 53 52 51 50 50 52 56 62 65 58 49 200 219 229 232 234 239 236 239 242 246 244 242 245 250 250 255 256 258 261 262 262 263 257 261 258
40 42 44 46 46 47 48 50 51 50 49 48 51 54 56 60 64 67 78 201 224 234 239 242 236 240 246 251 254 253 257 259 256 258 259 261 265 266 266 266 261 265 264
35 40 42 44 44 45 44 45 47 47 47 48 50 49 46 46 53 64 68 70 60 239 230 232 234 242 251 256 257 257 260 260 259 262 262 260 264 267 269 269 265 266 266
24 31 35 36 37 38 38 40 41 42 42 44 44 42 42 41 40 41 44 47 45 40 220 236 240 248 255 257 260 261 262 264 265 263 262 263 264 265 268 271 269 265 266
5 11 18 23 25 27 30 32 33 34 35 34 33 32 31 29 29 32 27 11 356 345 314 276 264 262 263 264 266 267 265 267 268 270 268 267 269 270 271 278 275 269 270
342 349 358 5 7 10 15 20 23 24 24 21 15 15 19 17 18 21 17 4 350 336 323 310 307 299 287 279 275 274 274 270 268 270 272 272 274 274 277 280 279 276 274
322 323 331 341 343 348 355 360 6 12 14 13 14 15 11 7 8 8 6 1 357 343 326 312 304 300 301 296 290 283 285 285 282 277 277 279 280 279 279 282 283 281 280
Height
5879 5878 5878 5878 5879 5879 5880 5880 5881 5882 5882 5883 5884 5885 5886 5887 5887 5888 5888 5889 5889 5890 5890 5890 5890 5891 5890 5891 5891 5891 5891 5891 5891 5891 5891 5891 5891 5891 5891 5891 5891 5891 5891
5879 5878 5879 5879 5879 5880 5880 5881 5882 5883 5883 5884 5885 5886 5887 5887 5888 5889 5889 5889 5890 5890 5891 5891 5891 5891 5891 5891 5891 5891 5891 5892 5892 5891 5891 5891 5892 5892 5892 5892 5892 5892 5892
5879 5879 5879 5879 5880 5880 5880 5881 5882 5883 5884 5884 5885 5886 5887 5888 5889 5889 5890 5890 5891 5891 5891 5891 5892 5892 5892 5892 5892 5892 5892 5892 5892 5892 5892 5892 5893 5893 5893 5893 5893 5893 5893
5880 5880 5880 5880 5880 5881 5881 5881 5882 5883 5884 5885 5886 5887 5888 5889 5889 5890 5890 5891 5891 5892 5892 5892 5892 5893 5893 5893 5893 5893 5893 5893 5893 5893 5893 5893 5893 5894 5894 5894 5894 5894 5894
5880 5880 5881 5881 5881 5881 5881 5882 5883 5884 5884 5885 5886 5887 5888 5889 5890 5890 5891 5891 5892 5892 5892 5892 5893 5893 5893 5893 5894 5894 5894 5894 5894 5894 5894 5894 5894 5895 5895 5895 5895 5895 5895
5882 5881 5881 5881 5882 5882 5882 5883 5884 5884 5885 5886 5887 5887 5888 5889 5890 5891 5891 5892 5892 5892 5893 5893 5893 5894 5894 5894 5894 5894 5894 5894 5894 5894 5894 5895 5895 5895 5896 5896 5896 5896 5896
5883 5883 5882 5882 5883 5883 5883 5884 5884 5885 5885 5886 5887 5888 5888 5889 5890 5891 5892 5892 5893 5893 5893 5893 5894 5894 5894 5895 5895 5895 5895 5895 5895 5895 5895 5895 5896 5896 5896 5896 5897 5897 5897
5884 5884 5884 5883 5884 5884 5884 5884 5885 5885 5886 5886 5887 5888 5889 5889 5890 5891 5892 5892 5893 5893 5893 5894 5894 5894 5895 5895 5895 5895 5895 5895 5895 5895 5896 5896 5896 5897 5897 5897 5897 5897 5897
5886 5885 5885 5884 5884 5885 5885 5885 5885 5886 5886 5887 5887 5888 5889 5890 5890 5891 5892 5892 5893 5893 5894 5894 5894 5895 5895 5895 5895 5895 5895 5895 5895 5896 5896 5896 5897 5897 5897 5897 5897 5897 5897
5887 5887 5886 5885 5885 5885 5886 5886 5886 5886 5887 5887 5888 5888 5889 5890 5890 5891 5892 5892 5893 5893 5894 5894 5894 5895 5895 5895 5895 5895 5896 5896 5896 5896 5896 5896 5896 5896 5897 5897 5897 5897 5897
5889 5888 5887 5887 5886 5886 5886 5886 5886 5887 5887 5887 5888 5888 5889 5889 5890 5891 5891 5892 5893 5893 5893 5894 5894 5895 5895 5895 5895 5895 5895 5895 5896 5896 5896 5896 5896 5896 5896 5897 5897 5897 5897
5891 5890 5889 5888 5888 5887 5887 5887 5887 5887 5887 5888 5888 5888 5888 5888 5889 5890 5891 5891 5892 5893 5893 5893 5894 5894 5895 5895 5895 5895 5895 5895 5895 5896 5896 5896 5896 5896 5896 5896 5896 5896 5896
5894 5892 5891 5890 5889 5888 5888 5887 5887 5887 5887 5888 5888 5888 5887 5888 5889 5890 5890 5891 5891 5892 5892 5893 5893 5894 5894 5894 5894 5894 5894 5895 5895 5895 5895 5895 5895 5895 5895 5896 5895 5895 5895
5896 5895 5893 5892 5891 5890 5889 5889 5888 5888 5888 5888 5888 5888 5888 5888 5889 5889 5890 5890 5891 5891 5892 5892 5893 5893 5893 5894 5893 5893 5894 5894 5894 5894 5894 5895 5894 5894 5894 5894 5894 5894 5894
5898 5897 5895 5894 5893 5892 5891 5890 5889 5889 5888 5888 5888 5888 5888 5888 5888 5889 5889 5890 5890 5891 5891 5891 5892 5892 5893 5892 5893 5893 5893 5893 5893 5893 5893 5893 5893 5893 5893 5893 5893 5893 5893
5900 5898 5897 5895 5894 5893 5892 5891 5890 5890 5889 5889 5889 5888 5888 5888 5888 5889 5889 5889 5890 5890 5890 5890 5891 5891 5891 5892 5892 5892 5892 5892 5892 5892 5892 5892 5892 5892 5892 5892 5892 5891 5891
5902 5900 5899 5897 5896 5895 5894 5893 5892 5891 5890 5889 5889 5888 5888 5888 5888 5888 5888 5889 5889 5889 5889 5890 5890 5890 5890 5891 5891 5891 5892 5891 5891 5891 5891 5890 5890 5890 5890 5890 5890 5890 5890
5904 5902 5900 5899 5898 5896 5895 5894 5893 5892 5891 5890 5889 5888 5888 5888 5888 5887 5888 5888 5888 5888 5889 5889 5889 5889 5889 5890 5890 5890 5890 5890 5890 5889 5889 5889 5889 5889 5889 5888 5888 5888 5888
5906 5904 5902 5901 5899 5898 5897 5896 5894 5893 5892 5891 5890 5889 5888 5888 5887 5887 5887 5887 5888 5888 5888 5888 5888 5888 5888 5889 5889 5889 5889 5889 5888 5888 5888 5888 5888 5887 5887 5887 5886 5886 5886
5908 5906 5904 5903 5901 5900 5898 5897 5896 5894 5893 5892 5891 5889 5888 5888 5887 5887 5887 5887 5887 5887 5887 5887 5887 5887 5887 5887 5887 5888 5888 5887 5887 5887 5886 5886 5886 5886 5885 5885 5884 5883 5883
5909 5908 5906 5905 5903 5902 5900 5898 5897 5896 5894 5893 5892 5890 5889 5888 5887 5887 5886 5886 5886 5886 5886 5886 5886 5886 5886 5886 5886 5886 5886 5885 5885 5885 5884 5884 5884 5883 5883 5882 5881 5880 5880
5911 5909 5908 5906 5905 5903 5902 5900 5898 5897 5895 5894 5892 5891 5890 5889 5888 5887 5886 5886 5885 5885 5885 5885 5885 5885 5885 5885 5884 5884 5884 5884 5883 5882 5882 5881 5881 5881 5880 5879 5878 5877 5878
5912 5910 5909 5907 5906 5904 5903 5901 5899 5898 5896 5895 5893 5891 5890 5889 5888 5887 5886 5886 5885 5885 5884 5884 5884 5883 5883 5883 5882 5882 5882 5881 5881 5880 5880 5879 5879 5878 5877 5876 5875 5875 5874
5912 5911 5909 5908 5906 5905 5903 5902 5900 5898 5897 5895 5893 5892 5891 5889 5888 5887 5886 5885 5885 5884 5883 5883 5883 5882 5881 5881 5881 5880 5880 5879 5878 5878 5878 5877 5876 5875 5875 5873 5872 5871 5871
5912 5910 5909 5908 5906 5905 5904 5902 5900 5899 5897 5896 5893 5892 5890 5889 5888 5886 5885 5885 5884 5883 5883 5882 5882 5881 5880 5880 5879 5878 5878 5877 5876 5875 5875 5874 5874 5873 5872 5871 5869 5868 5867
5910 5909 5908 5907 5906 5905 5903 5902 5900 5899 5897 5895 5893 5891 5890 5888 5887 5886 5885 5884 5883 5883 5882 5881 5880 5879 5879 5878 5877 5876 5876 5875 5874 5873 5872 5871 5871 5870 5869 5868 5866 5865 5864